Location: Observatory
(52.1446°N, 0.4624°W)
Time: 04:58:31
(UTC+00:00)

ISS - Pass Details

Date: 19 January 2021
Orbit: 418 x 421 km, 51.6° (Epoch: 23 January)

Event Time Altitude Azimuth Distance (km) Brightness Sun altitude
Rises 18:26:01 0° 200° (SSW) 2,360 0.5 -17.8°
Reaches altitude 10° 18:28:48 10° 175° (S) 1,501 -0.9 -18.2°
Enters shadow 18:29:47 13° 159° (SSE) 1,322 -1.4 -18.4°
